Aerocube 18B

operational
NORAD ID: 63222 Int'l Des: 2025-052 Owner: AERO Country: US
LEOCIRCULARRETROGRADESSO

About Aerocube 18B

Description loading...

Live Position

Loading 3D Globe...

Upcoming Passes

Altitude History

Altitude vs Time

uPlot chart will show altitude changes over time

Two-Line Element Set

1 63222U 25052N 25315.23106699 .00010638 00000-0 48428-3 0 9998
2 63222 97.4179 206.6513 0005192 151.3557 208.7964 15.20865432 36721
Epoch: Nov 11, 2025 • Age: 15 hours

Current Status

Altitude 504.6 km
Velocity 7.61 km/s
Sub-Earth Point -6.88°S, 26.5°E
Launch Date Mar 15, 2025
Age 0.6 years
Type other

Technical Details

Classification Payload
Mass 10.00 kg
Dry Mass 10.00 kg
Total Mass 10.00 kg
Length 0.40 m
Diameter 0.10 m
Span 0.40 m
Shape Box + 2 pan
Manufacturer AERO
Bus Type Cubesat 6U
Phase Status In Orbit
Owner/State AERO/US

Large Constellations

Loading constellations...